Regional Weather Roundup
Issued by NWS New Orleans/Baton Rouge, LA

Home | Current Version | Previous Version | Text Only | Print | Product List | Glossary On
Versions: 1 2 3 4 5 6 7 8 9 10 11 12 13 14 15 16 17 18 19 20 21 22 23 24 25 26 27 28 29 30 31 32 33 34 35 36 37 38 39 40 41 42 43 44 45 46 47 48 49 50
000
ASUS44 KLIX 221910
RWRLIX
NEW ORLEANS REGIONAL WEATHER ROUNDUP
NATIONAL WEATHER SERVICE NEW ORLEANS LA
100 PM CST MON DEC 22 2014

NOTE: "FAIR" INDICATES FEW OR NO CLOUDS BELOW 12,000 FEET WITH NO
      SIGNIFICANT WEATHER AND/OR OBSTRUCTIONS TO VISIBILITY.
      SKY/WX - SKY CONDITION AND SIGNIFICANT WEATHER.
      TMP - AIR TEMPERATURE.     DP    - DEWPOINT TEMPERATURE.
      RH  - RELATIVE HUMIDITY.   PRES  - PRESSURE.
      HI  - HEAT INDEX.          WCI   - WIND CHILL INDEX.

*  THESE STATIONS ARE NOT NWS OR FAA STATIONS AND ARE NOT UNDER
   NWS QUALITY CONTROL.

LAZ038-040-048-061>063-065>067-069-222000-
SOUTHEAST LOUISIANA

CITY           SKY/WX    TMP DP  RH WIND       PRES   REMARKS
N.O. AUDUBON     N/A     74  67  79 MISG        N/A
N.O. INTL ARPT PTSUNNY   75  66  73 S17       29.73F
N.O. LAKEFRONT PTSUNNY   74  65  73 S22G29    29.74F
N.O. DOWNTOWN* CLOUDY    72  64  78 S12G21    29.75F
SLIDELL        PTSUNNY   72  65  78 S8        29.74F
BATON ROUGE    PTSUNNY   71  63  75 S9        29.71F
BOOTHVILLE     MOSUNNY   72  67  84 S14       29.78F
BELLE CHASSE   CLOUDY    76  67  73 S21G26    29.75F
BOGALUSA*        N/A     72  64  75 S9        29.76F
GALLIANO*      MOCLDY    76  69  78 MISG      29.76F
NEW ROADS*     CLOUDY    69  64  85 S10       29.71F
GONZALES*      MOCLDY    76  68  77 S10G23    29.72F
HAMMOND*       NOT AVBL
HOUMA*         PTSUNNY   75  68  78 S14G23    29.75F
PORT FOURCHON* PTCLDY    73  68  83 S13G18    29.80F

$$

MSZ070-080>082-222000-
SOUTHERN MISSISSIPPI

CITY           SKY/WX    TMP DP  RH WIND       PRES   REMARKS
MCCOMB         LGT RAIN  64  62  93 S7        29.72F FOG
GULFPORT       CLOUDY    66  64  93 S6        29.77F
BILOXI         NOT AVBL
PASCAGOULA     CLOUDY    69  65  86 S13       29.77F
STENNIS ARPT*  CLOUDY    66  63  88 SE7       29.76F FOG

$$

COASTAL OBSERVATIONS
LAKE AND NEARSHORE STATIONS

STATION/POSITION TIME  TEMP    WIND        PRES    WAVE
                       AIR SEA DIR/SP/G            HT/PER
                 (UTC) (F)     (DEG/KT/KT) (MB)    (FT/S)
PASCAGOULA       1900   68     140/  9/ 15 1007.9
WAVELAND YACHT   1900   63     140/  8/  9 1007.2
GRAND ISLE       1900   70 62  200/  7/ 12 1008.5
SOUTHWEST PASS   1900   68                 1008.8
NEW CANAL        1900   73 57  210/ 11/ 16 1007.6
SHELL BEACH      1900   72 58  200/ 14/ 19 1007.4

OFFSHORE STATIONS

STATION/POSITION TIME  TEMP    WIND        PRES    WAVE
                       AIR SEA DIR/SP/G            HT/PER
                 (UTC) (F)     (DEG/KT/KT) (MB)    (FT/S)
64 S DAUPHIN ISL 1900   74 74  230/ 17/ 21 1008.7    3/ 5

$$




USA.gov is the U.S. government's official web portal to all federal, state and local government web resources and services.